Wind_Speed
44 45 45 45 47 48 49 49 50 49 49 49 50 50 50 51 51 50 50 49 48 47 46 44 42 42 41 41 40 39 37 35 34 33 33 31 30 29 27 26 25 24 23
44 45 45 45 46 47 49 50 50 49 49 50 50 50 51 51 52 51 51 51 50 49 48 48 45 44 43 42 41 41 40 38 37 35 35 34 33 31 30 28 27 26 25
42 43 44 44 46 47 49 50 51 51 50 51 51 51 52 53 53 53 52 52 52 51 49 49 48 47 45 44 43 42 41 40 38 37 37 36 35 34 32 31 29 28 27
40 41 43 44 45 46 48 50 50 51 50 51 52 51 51 51 52 53 52 52 52 52 51 50 50 49 48 47 45 44 42 41 40 39 38 38 37 36 35 34 32 30 29
38 40 41 43 45 46 48 50 50 50 50 50 52 52 51 50 51 52 53 53 53 53 53 52 51 50 50 49 48 46 44 43 42 41 40 39 39 38 37 36 34 33 32
37 38 40 41 43 44 46 48 49 49 50 50 50 51 52 51 51 52 53 53 53 53 54 54 53 52 50 49 49 49 47 45 44 43 41 40 40 38 38 38 37 35 34
36 37 38 40 41 43 44 47 49 49 50 49 49 51 52 51 51 53 54 54 53 53 54 54 53 54 52 50 49 50 49 47 46 44 43 42 41 40 39 39 39 38 36
34 36 37 39 41 43 44 46 47 48 48 49 47 49 51 51 51 52 54 55 54 53 52 54 54 54 54 51 51 51 51 49 48 46 45 44 43 41 40 40 40 39 38
33 34 36 38 40 41 43 44 46 47 48 48 49 46 48 50 51 52 53 55 56 55 54 53 54 54 55 53 52 51 52 51 50 48 47 45 45 43 42 41 41 40 40
33 34 35 36 39 40 41 43 45 46 47 48 48 47 46 47 50 52 52 54 55 55 55 54 54 55 57 55 53 53 53 52 52 51 50 47 47 45 44 43 43 43 41
33 34 35 37 38 39 41 42 43 45 46 47 48 48 48 47 48 50 51 53 54 54 55 55 54 56 57 56 54 54 55 54 53 52 52 50 49 48 47 45 44 44 43
32 33 35 36 37 39 40 42 43 44 45 46 47 47 49 49 47 49 51 52 53 53 54 54 54 55 57 57 56 56 56 55 54 54 53 53 51 50 49 48 47 46 45
31 32 34 35 36 37 38 39 42 44 45 45 45 47 48 50 50 50 51 53 54 54 54 54 53 54 56 57 56 55 56 56 54 53 53 54 53 51 50 49 49 49 48
32 32 33 35 37 38 39 39 41 44 45 45 45 46 47 49 52 53 53 54 55 56 55 54 54 54 55 56 58 58 57 57 55 55 54 54 54 53 51 51 50 49 49
32 33 34 36 36 37 38 40 42 43 44 45 46 47 47 48 49 52 54 54 55 56 56 55 55 55 56 56 56 57 57 58 57 56 56 55 55 53 52 52 51 50 50
32 33 35 36 37 38 39 40 41 42 43 44 46 47 48 48 49 50 52 53 54 55 56 57 56 56 55 55 55 57 56 56 57 57 56 56 56 55 54 53 53 53 52
31 32 34 35 36 38 40 41 42 42 43 44 46 47 47 48 49 50 52 54 54 54 55 57 58 58 58 57 56 55 55 55 55 57 57 56 56 56 56 55 54 54 53
29 31 32 34 36 37 38 41 42 43 44 45 46 47 48 48 48 49 50 52 55 55 56 56 58 59 58 57 56 56 55 55 55 55 55 55 55 57 56 55 54 53 53
28 30 32 33 35 36 37 38 40 42 43 44 46 47 48 49 49 49 50 51 53 55 56 57 58 58 58 58 57 57 57 56 55 54 54 55 55 55 55 54 54 54 54
28 29 31 32 33 35 36 38 39 41 42 43 44 47 48 48 48 49 50 51 51 53 55 57 58 58 58 58 57 57 58 57 56 56 56 55 55 54 53 53 54 54 54
28 29 30 32 32 33 35 36 37 39 41 42 43 45 47 47 47 48 50 51 51 52 55 57 58 58 59 59 57 56 56 56 57 58 58 57 56 54 53 53 53 54 54
28 29 29 30 31 32 33 33 34 36 38 40 42 43 44 46 47 48 48 49 51 52 54 56 58 58 59 59 59 59 58 57 57 58 58 57 56 55 55 55 54 54 54
28 29 29 28 29 30 31 31 32 33 35 37 39 40 41 42 43 44 45 47 49 51 52 53 55 56 57 58 59 60 60 59 58 58 58 57 56 56 56 55 55 55 55
28 29 28 28 29 30 30 30 30 31 33 35 36 38 38 39 41 42 43 44 46 47 47 49 51 53 54 56 58 59 60 60 60 59 58 57 57 56 56 55 55 56 56
28 29 28 27 28 29 29 30 30 31 31 32 33 35 36 37 38 40 40 41 42 43 44 45 48 50 51 53 55 56 58 58 58 57 57 57 57 56 55 55 55 55 55
29 29 28 28 28 28 28 29 29 30 29 30 30 32 34 34 35 36 38 38 38 39 41 42 44 46 48 49 51 53 55 56 56 57 57 57 57 56 56 55 53 53 53
Wind_Direction
246 246 246 245 243 242 240 239 239 237 236 236 236 235 235 235 235 235 234 234 234 233 233 234 235 235 235 236 236 237 237 236 236 236 237 238 240 243 244 246 248 250 252
246 246 246 245 243 241 240 238 238 238 237 236 235 234 234 235 235 234 234 234 234 234 234 234 235 234 235 235 236 237 237 237 237 238 238 239 240 242 244 245 247 249 251
246 246 245 244 242 241 240 239 238 239 239 237 235 234 234 235 235 234 234 234 234 234 235 235 235 234 234 235 235 236 236 237 237 238 239 239 240 242 244 245 247 248 250
246 244 243 242 242 240 239 238 237 238 238 237 236 235 234 235 234 235 235 234 235 234 234 235 235 234 234 235 235 235 236 237 237 237 238 239 241 243 244 245 246 247 248
246 245 243 243 242 240 239 238 237 237 237 237 236 236 234 235 233 233 234 234 234 234 234 234 233 233 233 234 235 235 236 237 237 237 239 239 240 242 243 244 245 247 248
245 245 244 243 242 240 239 238 236 236 237 237 237 237 236 235 234 232 232 232 233 233 233 233 233 232 233 234 234 235 235 236 237 237 238 239 239 241 243 244 244 245 247
247 247 247 242 241 239 238 237 236 236 237 237 237 237 236 235 234 233 231 231 231 231 233 233 232 232 232 233 234 235 235 236 236 236 237 238 238 240 242 244 245 245 246
249 248 246 244 241 238 237 238 237 236 236 236 237 237 236 235 234 233 231 230 230 230 232 233 232 232 232 233 234 235 235 235 236 236 236 237 238 239 241 243 244 245 247
252 250 246 245 241 238 239 239 238 238 236 235 235 236 236 235 235 234 233 232 232 232 232 233 233 233 232 233 233 234 235 235 235 236 236 237 238 239 242 243 244 245 247
252 251 247 245 240 239 239 239 239 239 238 237 238 237 237 236 234 233 234 233 233 233 234 234 234 233 232 231 233 234 235 235 236 236 236 237 238 239 241 243 245 245 246
254 251 247 245 242 241 241 242 241 240 239 239 239 238 235 236 236 233 232 232 232 232 233 234 235 234 232 232 233 234 234 235 236 237 237 238 239 240 242 243 244 245 246
258 253 247 243 243 244 244 244 242 241 240 240 239 238 237 235 234 233 233 233 233 232 232 233 234 234 232 232 233 234 234 236 237 237 237 237 239 241 242 243 244 246 247
259 253 247 244 244 244 245 244 243 243 242 243 241 240 239 237 236 236 234 234 234 233 233 234 234 234 232 232 233 233 235 236 237 237 238 238 239 241 242 243 245 246 248
261 256 250 248 247 247 246 246 246 244 243 244 243 243 240 240 240 238 237 235 235 234 233 233 233 233 232 233 234 235 237 236 237 238 238 239 240 241 242 243 245 246 248
264 260 254 250 249 249 249 248 248 245 245 245 245 245 243 243 243 241 239 238 236 235 234 234 234 233 232 233 234 236 236 237 238 239 238 239 240 241 242 244 245 247 248
267 263 259 254 250 249 250 250 249 248 248 248 248 246 245 245 245 243 240 239 238 237 236 235 234 233 233 233 234 235 235 237 238 240 240 240 240 242 243 245 246 247 248
268 264 260 256 254 253 251 250 252 251 251 251 250 247 245 245 245 243 241 239 238 238 237 236 234 233 234 234 235 236 236 237 238 239 240 242 243 243 245 246 247 248 249
271 267 263 260 258 256 255 253 252 253 252 252 250 248 246 246 245 243 241 240 239 238 237 236 234 234 234 235 236 236 237 238 239 240 241 242 244 244 246 246 247 248 249
275 271 266 264 262 259 257 255 254 254 253 252 251 250 248 247 246 244 242 241 241 240 239 237 237 237 237 237 237 237 237 238 238 239 240 242 243 244 246 246 248 250 250
282 279 273 269 267 264 260 259 258 255 254 254 251 250 249 248 247 245 244 244 243 242 239 239 239 239 239 239 238 238 238 239 239 240 241 242 243 244 245 246 248 250 251
284 283 279 274 271 268 265 263 260 256 255 254 252 251 249 248 247 247 246 246 245 244 242 241 241 241 241 240 240 239 240 241 241 241 242 243 244 245 245 247 249 251 252
286 285 282 278 274 271 270 267 263 259 256 254 252 250 250 250 250 249 247 247 246 246 245 243 242 242 241 241 240 240 240 241 241 241 242 243 244 245 247 248 249 251 252
288 287 285 281 278 275 272 269 265 261 257 254 251 249 248 249 248 247 247 246 246 247 246 245 243 242 242 241 240 241 241 241 241 241 241 242 243 245 246 248 250 251 252
288 288 287 283 279 277 273 270 266 263 261 257 252 249 248 248 248 247 247 246 245 246 246 244 243 242 241 240 240 240 239 240 240 241 241 241 243 244 245 247 248 249 251
287 288 286 284 281 278 274 272 268 264 261 257 253 250 250 250 249 248 248 248 247 246 244 243 242 240 239 239 239 239 238 239 240 241 242 243 244 244 245 246 248 250 252
286 287 285 284 281 278 276 273 270 266 262 258 255 253 252 250 248 248 247 248 247 245 245 243 242 241 240 238 239 238 239 240 240 241 242 243 244 245 246 247 248 250 251
Height
5681 5685 5688 5691 5694 5697 5700 5705 5709 5713 5717 5722 5727 5731 5736 5740 5745 5750 5755 5759 5764 5768 5773 5777 5781 5785 5789 5792 5796 5798 5801 5805 5808 5811 5814 5816 5819 5821 5824 5825 5827 5829 5830
5668 5671 5674 5677 5680 5684 5688 5692 5696 5700 5705 5710 5714 5719 5724 5728 5733 5738 5743 5748 5753 5757 5762 5766 5771 5775 5779 5783 5786 5790 5793 5796 5800 5803 5806 5809 5812 5814 5817 5819 5821 5823 5824
5655 5658 5661 5664 5667 5671 5675 5679 5684 5688 5692 5697 5701 5706 5710 5715 5720 5726 5731 5736 5740 5746 5751 5755 5760 5765 5769 5773 5776 5780 5784 5788 5791 5794 5798 5801 5805 5807 5810 5812 5815 5817 5818
5642 5645 5648 5652 5655 5659 5663 5667 5671 5676 5679 5683 5689 5693 5698 5703 5708 5713 5719 5723 5728 5734 5739 5744 5748 5753 5758 5762 5766 5770 5774 5778 5782 5785 5789 5793 5797 5800 5803 5805 5808 5810 5812
5630 5633 5636 5639 5643 5646 5650 5654 5659 5663 5667 5671 5676 5680 5685 5690 5695 5700 5706 5711 5716 5721 5727 5732 5736 5741 5746 5751 5756 5760 5764 5768 5772 5776 5780 5784 5788 5791 5794 5797 5800 5803 5805
5619 5621 5624 5627 5630 5634 5638 5642 5646 5651 5655 5659 5663 5668 5672 5677 5682 5687 5693 5698 5704 5709 5714 5719 5724 5730 5735 5740 5745 5749 5754 5758 5763 5767 5771 5775 5779 5782 5786 5789 5792 5794 5797
5609 5610 5612 5615 5618 5622 5626 5630 5634 5639 5643 5646 5650 5655 5659 5664 5669 5675 5680 5686 5691 5697 5702 5707 5712 5718 5723 5728 5733 5738 5744 5748 5753 5757 5762 5765 5770 5773 5777 5780 5783 5786 5788
5599 5600 5602 5604 5607 5610 5614 5618 5623 5627 5631 5635 5639 5643 5647 5651 5656 5661 5667 5672 5678 5684 5689 5694 5700 5705 5711 5717 5722 5727 5733 5738 5742 5747 5751 5756 5760 5764 5767 5771 5774 5777 5780
5589 5590 5592 5594 5596 5600 5603 5607 5611 5615 5619 5623 5627 5631 5635 5639 5644 5649 5654 5660 5665 5671 5676 5682 5687 5693 5699 5705 5710 5716 5721 5727 5732 5736 5741 5746 5750 5754 5758 5761 5765 5768 5771
5580 5581 5582 5584 5587 5590 5593 5597 5601 5604 5608 5612 5616 5620 5623 5627 5632 5637 5642 5647 5653 5659 5664 5669 5675 5681 5687 5693 5698 5704 5710 5715 5720 5725 5730 5735 5740 5744 5748 5752 5755 5758 5762
5572 5572 5573 5575 5578 5581 5584 5587 5590 5594 5597 5601 5605 5608 5612 5616 5620 5625 5630 5634 5640 5646 5652 5657 5662 5668 5675 5680 5686 5692 5698 5704 5709 5714 5719 5724 5729 5733 5738 5742 5745 5748 5752
5563 5564 5565 5567 5569 5572 5574 5577 5580 5583 5586 5589 5593 5597 5601 5605 5609 5613 5617 5622 5628 5633 5639 5644 5650 5656 5662 5668 5674 5680 5686 5691 5697 5702 5708 5713 5717 5722 5727 5731 5734 5738 5741
5555 5556 5557 5558 5561 5563 5565 5567 5570 5573 5576 5579 5582 5585 5589 5593 5597 5601 5605 5610 5615 5620 5626 5632 5638 5643 5649 5656 5662 5668 5674 5680 5685 5690 5696 5701 5706 5711 5715 5720 5724 5727 5731
5548 5549 5549 5550 5552 5554 5555 5558 5560 5563 5565 5568 5571 5574 5577 5581 5585 5589 5593 5598 5603 5608 5614 5620 5626 5631 5637 5643 5649 5656 5661 5668 5673 5678 5684 5689 5694 5699 5704 5708 5712 5716 5719
5541 5541 5541 5542 5543 5544 5546 5548 5550 5552 5554 5557 5560 5562 5565 5569 5572 5576 5580 5585 5590 5595 5601 5607 5613 5619 5625 5631 5637 5643 5649 5655 5660 5666 5672 5677 5682 5687 5691 5696 5700 5704 5708
5532 5532 5533 5533 5534 5535 5537 5538 5540 5542 5544 5546 5548 5551 5554 5557 5560 5564 5568 5573 5577 5583 5588 5594 5600 5607 5613 5619 5625 5631 5637 5642 5648 5654 5659 5664 5669 5674 5679 5684 5688 5692 5695
5524 5524 5523 5524 5525 5526 5527 5529 5530 5531 5533 5535 5537 5539 5542 5545 5548 5552 5556 5560 5565 5570 5575 5581 5587 5594 5600 5606 5612 5618 5624 5630 5635 5641 5646 5652 5657 5662 5666 5671 5675 5679 5682
5516 5515 5514 5514 5515 5515 5516 5518 5519 5520 5522 5523 5525 5527 5530 5532 5535 5539 5543 5548 5552 5557 5563 5568 5574 5581 5587 5593 5599 5605 5611 5617 5622 5628 5634 5639 5644 5649 5653 5658 5662 5666 5670
5508 5506 5505 5505 5504 5505 5505 5506 5507 5508 5510 5511 5513 5515 5517 5520 5523 5527 5531 5535 5539 5544 5549 5555 5561 5567 5574 5580 5586 5592 5597 5603 5609 5615 5621 5626 5631 5636 5640 5645 5649 5654 5657
5500 5498 5496 5495 5495 5494 5494 5495 5496 5497 5498 5499 5501 5503 5505 5508 5511 5515 5519 5522 5526 5531 5536 5542 5547 5553 5560 5566 5572 5578 5584 5591 5597 5602 5608 5613 5618 5623 5626 5631 5635 5640 5644
5492 5490 5488 5486 5485 5484 5484 5484 5484 5485 5486 5487 5489 5491 5493 5496 5499 5503 5506 5510 5514 5519 5523 5529 5534 5540 5546 5552 5558 5564 5570 5576 5582 5588 5594 5600 5604 5609 5613 5617 5622 5627 5630
5483 5481 5479 5477 5476 5475 5474 5473 5474 5474 5474 5476 5477 5479 5481 5484 5487 5490 5494 5498 5502 5506 5510 5515 5520 5526 5532 5537 5544 5549 5555 5562 5567 5573 5580 5585 5590 5595 5599 5603 5608 5612 5615
5475 5472 5470 5469 5467 5465 5464 5464 5463 5463 5464 5465 5466 5468 5470 5472 5475 5478 5481 5485 5489 5493 5497 5501 5506 5512 5517 5523 5529 5535 5541 5546 5552 5559 5565 5570 5575 5580 5584 5589 5593 5597 5600
5466 5464 5462 5460 5458 5456 5455 5454 5454 5453 5453 5454 5455 5457 5459 5461 5463 5466 5469 5473 5476 5480 5484 5488 5492 5497 5503 5508 5514 5520 5526 5531 5537 5543 5549 5555 5560 5565 5570 5574 5578 5582 5586
5457 5455 5453 5451 5449 5447 5446 5445 5444 5444 5444 5444 5445 5446 5448 5450 5452 5455 5458 5461 5464 5468 5471 5475 5479 5484 5490 5495 5500 5505 5511 5517 5523 5528 5534 5539 5545 5550 5555 5559 5564 5567 5571
5448 5446 5444 5442 5440 5438 5437 5436 5435 5434 5434 5435 5436 5437 5438 5440 5442 5444 5447 5449 5453 5456 5459 5462 5467 5471 5476 5481 5486 5491 5497 5502 5508 5513 5518 5524 5530 5535 5540 5545 5549 5553 5556